Location: Rodanthe
(35.5920°N, 75.4670°W)
Time: 19:26:28
(UTC-04:00)

ISS - All Passes

Search period start: 01 September 2014 00:00
Search period end: 11 September 2014 00:00
Orbit: 414 x 419 km, 51.6° (Epoch: 01 September)

Date Brightness Start Highest point End Pass type
(mag) Time Alt. Az. Time Alt. Az. Time Alt. Az.
01 Sep - 08:59:53 10° S 09:02:19 19° SE 09:04:46 10° E daylight
01 Sep - 10:35:48 10° WSW 10:38:52 34° NW 10:41:57 10° NNE daylight
01 Sep - 15:31:31 10° N 15:32:48 12° NNE 15:34:04 10° NE daylight
01 Sep - 17:06:42 10° NW 17:10:02 72° NE 17:13:21 10° SE daylight
02 Sep - 08:13:41 10° SE 08:13:58 10° SE 08:14:16 10° ESE daylight
02 Sep - 09:46:59 10° WSW 09:50:17 63° NW 09:53:35 10° NE daylight
02 Sep - 11:26:36 10° NW 11:27:34 11° NNW 11:28:32 10° N daylight
02 Sep - 16:18:18 10° NNW 16:21:27 38° NE 16:24:35 10° ESE daylight
02 Sep - 17:55:42 10° W 17:57:57 17° SW 18:00:11 10° S daylight
03 Sep - 08:58:27 10° SW 09:01:44 66° SE 09:05:02 10° NE daylight
03 Sep - 10:36:40 10° WNW 10:38:45 15° NNW 10:40:51 10° N daylight
03 Sep - 15:30:01 10° NNW 15:32:47 23° NNE 15:35:31 10° E daylight
03 Sep - 17:06:32 10° WNW 17:09:32 32° SW 17:12:31 10° SSE daylight
04 Sep - 08:10:14 10° SSW 08:13:14 32° SE 08:16:15 10° ENE daylight
04 Sep - 09:47:16 10° W 09:50:00 23° NNW 09:52:44 10° NNE daylight
04 Sep - 14:41:54 10° NNW 14:44:01 16° NNE 14:46:08 10° ENE daylight
04 Sep - 16:17:44 10° NW 16:21:01 64° SW 16:24:19 10° SE daylight
05 Sep - 07:22:30 10° S 07:24:47 17° SE 07:27:04 10° E daylight
05 Sep - 08:58:10 10° WSW 09:01:17 37° NW 09:04:25 10° NNE daylight
05 Sep - 13:54:08 10° N 13:55:10 11° NNE 13:56:12 10° NE daylight
05 Sep - 15:29:08 10° NW 15:32:26 65° NE 15:35:44 10° ESE daylight
06 Sep - 08:09:19 10° SW 08:12:37 70° NW 08:15:56 10° NE daylight
06 Sep - 09:48:38 10° NW 09:49:51 12° NNW 09:51:05 10° N daylight
06 Sep - 14:40:40 10° NNW 14:43:45 35° NE 14:46:50 10° ESE daylight
06 Sep - 16:17:52 10° W 16:20:17 19° SW 16:22:42 10° S daylight
07 Sep - 07:20:44 10° SW 07:24:00 58° SE 07:27:17 10° NE daylight
07 Sep - 08:58:45 10° WNW 09:00:58 16° NNW 09:03:11 10° NNE daylight
07 Sep - 13:52:19 10° NNW 13:54:59 22° NNE 13:57:38 10° E daylight
07 Sep - 15:28:42 10° WNW 15:31:46 35° SW 15:34:50 10° SSE daylight
08 Sep - 06:32:30 10° SSW 06:35:25 29° SE 06:38:22 10° ENE daylight
08 Sep - 08:09:19 10° W 08:12:08 25° NNW 08:14:57 10° NNE daylight
08 Sep - 13:04:08 10° N 13:06:07 15° NNE 13:08:06 10° ENE daylight
08 Sep - 14:39:51 10° NW 14:43:10 72° SW 14:46:28 10° SE daylight
09 Sep - 05:44:49 10° SSE 05:46:53 16° SE 05:48:58 10° E visible
09 Sep - 07:20:10 10° WSW 07:23:21 41° NW 07:26:31 10° NE daylight
09 Sep - 12:16:29 10° N 12:17:10 10° NNE 12:17:51 10° NE daylight
09 Sep - 13:51:12 10° NW 13:54:29 57° NE 13:57:45 10° ESE daylight
09 Sep - 15:29:47 10° WSW 15:30:48 11° SW 15:31:49 10° SW daylight
10 Sep - 06:31:17 10° SW 06:34:36 79° NW 06:37:56 10° NE daylight
10 Sep - 08:10:20 10° NW 08:11:47 12° NNW 08:13:15 10° N daylight
10 Sep - 13:02:40 10° NNW 13:05:42 32° NE 13:08:43 10° E daylight
10 Sep - 14:39:42 10° W 14:42:16 21° SW 14:44:50 10° S daylight
